Weather History for Istanbul, Turkey

Change the Weather History Date:

Thursday, August 22, 2013

  Actual Average Record
Temperature  
Mean Temperature 82 °F -  
Max Temperature 88 °F 76 °F 95 °F (2007)
Min Temperature 77 °F 63 °F 64 °F (2002)
Cooling Degree Days 18    
Growing Degree Days 32 (Base 50)    
Moisture  
Dew Point 59 °F    
Average Humidity 50    
Maximum Humidity 69    
Minimum Humidity 31    
Precipitation  
Precipitation 0.00 in - - ()
Sea Level Pressure  
Sea Level Pressure 29.90 in    
Wind  
Wind Speed 12 mph ()    
Max Wind Speed 18 mph    
Max Gust Speed 29 mph    
Visibility 6.2 miles    
Events      
Averages and records for this station are not official NWS values.
T = Trace of Precipitation, MM = Missing Value Source: Averaged Metar Reports

Daily Weather History Graph

Daily Weather History Graph

Search for Another Location

Airport:

Trip Planner

Search our weather history database for the weather conditions in past years. The results will help you decide how hot, cold, wet, or windy it might be!

Date:

Astronomy

Aug. 22, 2013 Rise Set
Actual Time 6:21 AM EEST 7:53 PM EEST
Civil Twilight 5:52 AM EEST 8:21 PM EEST
Nautical Twilight 5:17 AM EEST 8:56 PM EEST
Astronomical Twilight 4:40 AM EEST 9:33 PM EEST
Moon 8:24 PM EEST (8/22) 7:48 AM EEST (8/22)
Length of Visible Light 14h 29m
Length of Day
13h 31m
Full, 98% of the Moon is Illuminated
Aug 22
Full
Aug 28
Last Quarter
Sep 5
New
Sep 12
First Quarter
Sep 19
Full

Hourly Weather History & Observations

Time (EEST) Temp. Heat Index Dew Point Humidity Pressure Visibility Wind Dir Wind Speed Gust Speed Precip Events Conditions
12:20 AM 77.0 °F - 62.6 °F 61% 29.92 in - NE 13.8 mph - N/A   Clear
12:50 AM 77.0 °F - 60.8 °F 57% 29.92 in - NE 12.7 mph - N/A   Clear
1:20 AM 78.8 °F - 60.8 °F 54% 29.92 in - NE 12.7 mph - N/A   Clear
1:50 AM 80.6 °F 81.5 °F 60.8 °F 51% 29.92 in - Variable 11.5 mph - N/A   Clear
2:20 AM 77.0 °F - 59.0 °F 54% 29.92 in - NE 10.4 mph - N/A   Clear
2:50 AM 77.0 °F - 59.0 °F 54% 29.92 in - NE 12.7 mph - N/A   Clear
3:00 AM 77 °F - 58 °F 41% 29.92 in 6 mi NE 12.7 mph - -  
3:20 AM 77.0 °F - 59.0 °F 54% 29.92 in - NE 11.5 mph - N/A   Clear
3:50 AM 77.0 °F - 57.2 °F 50% 29.92 in - NE 12.7 mph - N/A   Clear
4:20 AM 77.0 °F - 59.0 °F 54% 29.89 in - NE 10.4 mph - N/A   Clear
4:50 AM 77.0 °F - 59.0 °F 54% 29.89 in - NE 11.5 mph - N/A   Clear
5:20 AM 77.0 °F - 59.0 °F 54% 29.89 in - NE 10.4 mph - N/A   Clear
5:50 AM 77.0 °F - 59.0 °F 54% 29.89 in - ENE 10.4 mph - N/A   Clear
6:20 AM 77.0 °F - 59.0 °F 54% 29.89 in 6.2 mi NE 10.4 mph - N/A   Partly Cloudy
6:50 AM 77.0 °F - 59.0 °F 54% 29.89 in 6.2 mi NE 10.4 mph - N/A   Partly Cloudy
7:20 AM 77.0 °F - 59.0 °F 54% 29.89 in 6.2 mi NE 11.5 mph - N/A   Scattered Clouds
7:50 AM 77.0 °F - 59.0 °F 54% 29.89 in 6.2 mi NE 10.4 mph - N/A   Partly Cloudy
8:20 AM 78.8 °F - 59.0 °F 51% 29.89 in 6.2 mi NE 13.8 mph - N/A   Partly Cloudy
8:50 AM 80.6 °F 80.8 °F 57.2 °F 45% 29.89 in 6.2 mi NE 13.8 mph 25.3 mph N/A   Partly Cloudy
9:20 AM 82.4 °F 82.0 °F 57.2 °F 42% 29.89 in 6.2 mi NE 15.0 mph - N/A   Scattered Clouds
9:50 AM 82.4 °F 82.0 °F 57.2 °F 42% 29.89 in 6.2 mi NE 12.7 mph - N/A   Scattered Clouds
10:20 AM 80.6 °F 80.8 °F 57.2 °F 45% 29.89 in 6.2 mi NE 16.1 mph - N/A   Scattered Clouds
10:50 AM 82.4 °F 82.0 °F 57.2 °F 42% 29.89 in 6.2 mi NE 15.0 mph - N/A   Scattered Clouds
11:20 AM 82.4 °F 82.0 °F 57.2 °F 42% 29.89 in 6.2 mi NNE 17.3 mph - N/A   Scattered Clouds
11:50 AM 84.2 °F 83.5 °F 57.2 °F 40% 29.89 in 6.2 mi NNE 16.1 mph - N/A   Scattered Clouds
12:20 PM 84.2 °F 82.8 °F 53.6 °F 35% 29.89 in 6.2 mi NNE 16.1 mph - N/A   Scattered Clouds
12:50 PM 84.2 °F 83.5 °F 57.2 °F 40% 29.89 in 6.2 mi NNE 17.3 mph 28.8 mph N/A   Scattered Clouds
1:20 PM 84.2 °F - 51.8 °F 33% 29.89 in 6.2 mi NE 16.1 mph - N/A   Partly Cloudy
1:50 PM 86.0 °F 84.2 °F 53.6 °F 33% 29.89 in 6.2 mi NNE 18.4 mph - N/A   Partly Cloudy
2:20 PM 87.8 °F 85.7 °F 53.6 °F 31% 29.89 in 6.2 mi NE 16.1 mph - N/A   Partly Cloudy
2:50 PM 84.2 °F 83.0 °F 55.4 °F 37% 29.89 in 6.2 mi NE 17.3 mph - N/A   Partly Cloudy
3:20 PM 84.2 °F 83.0 °F 55.4 °F 37% 29.89 in 6.2 mi NE 17.3 mph - N/A   Partly Cloudy
3:50 PM 84.2 °F 82.8 °F 53.6 °F 35% 29.89 in 6.2 mi NE 16.1 mph - N/A   Partly Cloudy
4:20 PM 82.4 °F 82.9 °F 60.8 °F 48% 29.89 in 6.2 mi NE 17.3 mph 28.8 mph N/A   Partly Cloudy
4:50 PM 84.2 °F 83.8 °F 59.0 °F 42% 29.89 in 6.2 mi NNE 17.3 mph - N/A   Partly Cloudy
5:20 PM 80.6 °F 81.1 °F 59.0 °F 48% 29.89 in 6.2 mi NE 15.0 mph 26.5 mph N/A   Partly Cloudy
5:50 PM 82.4 °F 82.0 °F 57.2 °F 42% 29.89 in 6.2 mi NNE 15.0 mph - N/A   Partly Cloudy
6:20 PM 82.4 °F 82.0 °F 57.2 °F 42% 29.89 in 6.2 mi Variable 15.0 mph - N/A   Partly Cloudy
6:50 PM 80.6 °F 81.1 °F 59.0 °F 48% 29.89 in 6.2 mi NNE 15.0 mph - N/A   Partly Cloudy
7:20 PM 80.6 °F 81.5 °F 60.8 °F 51% 29.89 in 6.2 mi NE 13.8 mph - N/A   Partly Cloudy
7:50 PM 78.8 °F - 64.4 °F 61% 29.89 in 6.2 mi NNE 13.8 mph - N/A   Partly Cloudy
8:20 PM 80.6 °F 82.3 °F 64.4 °F 58% 29.89 in 6.2 mi NNE 10.4 mph - N/A   Partly Cloudy
8:50 PM 78.8 °F - 62.6 °F 57% 29.89 in - NE 13.8 mph - N/A   Clear
9:00 PM 79 °F - 65 °F 53% 29.90 in 6 mi NE 13.8 mph - -  
9:20 PM 78.8 °F - 64.4 °F 61% 29.89 in - NE 13.8 mph - N/A   Clear
9:50 PM 78.8 °F - 66.2 °F 65% 29.89 in - NE 10.4 mph - N/A   Clear
10:20 PM 77.0 °F - 66.2 °F 69% 29.89 in - NE 13.8 mph - N/A   Clear
10:50 PM 77.0 °F - 66.2 °F 69% 29.89 in - NE 9.2 mph - N/A   Clear
11:20 PM 78.8 °F - 66.2 °F 65% 29.89 in - NE 11.5 mph - N/A   Clear
11:50 PM 77.0 °F - 66.2 °F 69% 29.89 in - NE 12.7 mph - N/A   Clear